Location: Degerfors
(59.2294°N, 14.4406°E)
Time: 13:38:53
(UTC+01:00)

ISS - Pass Details

Date: 02 December 2021
Orbit: 413 x 422 km, 51.6° (Epoch: 18 January)

Event Time Altitude Azimuth Distance (km) Brightness Sun altitude
Rises 17:47:59 0° 261° (W) 2,386 1.8 -18.3°
Reaches altitude 10° 17:50:30 10° 242° (WSW) 1,516 0.2 -18.7°
Maximum altitude 17:52:56 18° 196° (SSW) 1,101 -1.3 -19.0°
Enters shadow 17:54:35 14° 161° (SSE) 1,306 -1.3 -19.2°
